www.pogodaiklimat.ru

Погода и климат >> Архив погоды >> Норвегия >> Аэропорт Vaeroy Heliport


ПОГОДА в Аэропорту Vaeroy Heliport

  • Прогноз погоды в Аэропорту Vaeroy Heliport
  • Монитор погоды в Аэропорту Vaeroy Heliport

АРХИВ ПОГОДЫ в Аэропорту Vaeroy Heliport

Время (UTC), дата Ветер
(напр.,м/с)
 
Видим.   Явления Облачность Т
(С)
Тd
(С)
f
(%)
Тe
(С)
Тes
(С)
Комфортность P
(гПа)
Po
(гПа)
Тmin
(С)
Tmax
(С)
R
(мм)
R24
(мм)
S
(см)
10 11.06 СВ 4
{7}
н/о н/о +8.5 +1.4 61 +6 +6 1031.4 1030.9
11 11.06 С 4
{6}
н/о н/о +8.8 +1.5 60 +6 +6 1031.8 1031.3
12 11.06 С 4
{10}
н/о н/о +8.9 +2.0 62 +6 +6 1031.8 1031.3
13 11.06 С 5
{7}
н/о н/о +8.8 +3.2 68 +6 +6 1032.0 1031.5
14 11.06 С 5
{8}
н/о н/о +8.9 +3.4 68 +6 +6 1031.9 1031.4
15 11.06 С 6
{9}
н/о н/о +8.5 +3.3 70 +5 +5 1032.1 1031.6
16 11.06 С 7
{9}
н/о н/о +8.3 +3.4 71 +4 +4 1032.3 1031.8
17 11.06 С 5
{9}
н/о н/о +8.4 +3.8 73 +5 +5 1032.3 1031.8
18 11.06 С 6
{9}
н/о н/о +7.9 +3.9 76 +4 +4 1032.5 1032.0 +7.4 +9.1
19 11.06 С 4
{9}
н/о н/о +7.9 +3.3 73 +5 +5 1032.6 1032.1
20 11.06 С 5
{8}
н/о н/о +7.5 +3.0 73 +4 +4 1032.4 1031.9
21 11.06 С 5
{8}
н/о н/о +7.1 +3.1 76 +3 +3 1032.2 1031.7
22 11.06 С 6
{8}
н/о н/о +6.9 +3.1 77 +3 +3 1032.2 1031.7
23 11.06 С 6
{9}
н/о н/о +6.6 +2.7 76 +2 +2 1032.1 1031.6
00 12.06 С 5
{9}
н/о н/о +6.5 +2.5 76 +2 +2 1032.0 1031.5
01 12.06 С 4
{8}
н/о н/о +6.4 +2.6 77 +3 +3 1031.5 1031.0
02 12.06 С 6
{9}
н/о н/о +6.5 +2.8 77 +2 +2 1031.2 1030.7
03 12.06 С 6
{8}
н/о н/о +7.0 +3.0 76 +3 +3 1030.9 1030.4
04 12.06 С 5
{8}
н/о н/о +7.1 +2.9 75 +3 +3 1030.6 1030.1
05 12.06 С 4
{7}
н/о н/о +7.3 +2.9 74 +4 +4 1030.3 1029.8
06 12.06 С 4
{9}
н/о н/о +7.7 +3.1 73 +5 +5 1030.2 1029.7 +6.3 +8.1
07 12.06 С 5
{7}
н/о н/о +7.7 +2.8 71 +4 +4 1029.9 1029.4
08 12.06 С 5
{7}
н/о н/о +7.9 +2.8 70 +4 +4 1029.7 1029.2
09 12.06 С 5
{6}
н/о н/о +8.1 +3.1 71 +5 +5 1029.4 1028.9
10 12.06 С 3
{6}
н/о н/о +8.5 +3.1 69 +6 +6 1029.2 1028.7
11 12.06 С 6
{7}
н/о н/о +8.4 +3.1 69 +5 +5 1028.5 1028.0
12 12.06 С 6
{7}
н/о н/о +8.4 +3.1 69 +5 +5 1028.3 1027.8
13 12.06 С 5
{7}
н/о н/о +8.5 +3.3 70 +5 +5 1027.8 1027.3
14 12.06 С 7
{9}
н/о н/о +8.4 +3.6 72 +4 +4 1027.1 1026.6
15 12.06 С 7
{9}
н/о н/о +8.3 +3.7 73 +4 +4 1026.3 1025.8
16 12.06 С 7
{10}
н/о н/о +8.4 +4.2 75 +4 +4 1025.7 1025.2
17 12.06 С 4
{9}
н/о н/о +8.7 +3.5 70 +6 +6 1025.2 1024.7
18 12.06 С 4
{10}
н/о н/о +8.7 +3.9 72 +6 +6 1024.9 1024.4 +7.6 +8.9
19 12.06 С 4
{6}
н/о н/о +8.5 +4.0 73 +6 +6 1024.4 1023.9
20 12.06 С 3
{5}
н/о н/о +9.0 +2.4 63 +7 +7 1023.9 1023.4
21 12.06 С 6
{8}
н/о н/о +8.3 +4.4 76 +4 +4 1023.1 1022.6
22 12.06
{8}
н/о н/о +8.3 +4.9 79 1022.9 1022.4
23 12.06 С 6
{7}
н/о н/о +9.2 +4.9 74 +6 +6 1022.5 1022.0
00 13.06
{8}
н/о н/о +9.8 +4.3 69 1022.2 1021.7
01 13.06 С 6
{8}
н/о н/о +10.0 +5.3 73 +7 +7 1022.2 1021.7
02 13.06 С 7
{9}
н/о н/о +9.5 +5.4 76 +6 +6 1021.8 1021.3
03 13.06 СВ 8
{10}
н/о н/о +10.1 +5.6 74 +6 +6 1021.5 1021.0
04 13.06 СВ 8
{11}
н/о н/о +9.9 +6.0 77 +6 +6 1021.4 1020.9
05 13.06 СВ 7
{10}
н/о н/о +9.9 +6.2 78 +6 +6 1021.3 1020.8
06 13.06 СВ 8
{11}
н/о н/о +9.7 +6.5 80 +6 +6 1021.2 1020.7 +8.1 +10.5
07 13.06 СВ 8
{9}
н/о н/о +10.0 +7.1 82 +6 +6 1020.9 1020.5
08 13.06 СВ 9
{11}
н/о н/о +10.1 +7.5 84 +6 +6 1021.0 1020.5
09 13.06 СВ 8
{10}
н/о н/о +10.1 +7.6 84 +6 +6 1021.1 1020.6
10 13.06 СВ 7
{9}
н/о н/о +10.4 +7.9 84 +7 +7 1021.2 1020.7
11 13.06 СВ 5
{8}
н/о н/о +11.0 +7.7 80 +8 +8 1021.3 1020.9
12 13.06 С 6
{11}
н/о н/о +10.8 +7.8 82 +8 +8 1021.2 1020.7
13 13.06 С 6
{7}
н/о н/о +11.0 +7.8 81 +8 +8 1021.3 1020.8
14 13.06 С 6
{8}
н/о н/о +11.4 +7.4 76 +9 +9 1020.9 1020.4
15 13.06
{8}
н/о н/о +11.6 +7.7 77 1020.5 1020.0
16 13.06 С 7
{8}
н/о н/о +11.9 +6.6 70 +9 +9 1020.0 1019.5
17 13.06 С 8
{9}
н/о н/о +12.0 +6.3 68 +9 +9 1019.8 1019.3
18 13.06 С 7
{9}
н/о н/о +11.5 +7.2 75 +8 +8 1019.7 1019.2 +9.7 +12.1
19 13.06 СВ 7
{9}
н/о н/о +11.4 +7.4 76 +8 +8 1019.6 1019.1
20 13.06
{8}
н/о н/о +11.2 +7.7 79 1019.5 1019.0
21 13.06
{8}
н/о н/о +10.9 +7.6 80 1019.7 1019.2
22 13.06 СВ 8
{9}
н/о н/о +10.9 +7.8 81 +7 +7 1019.7 1019.2
23 13.06 СВ 8
{11}
н/о н/о +11.6 +7.3 75 +8 +8 1019.6 1019.1
00 14.06 СВ 9
{12}
н/о н/о +11.4 +7.3 76 +8 +8 1019.7 1019.2
01 14.06 СВ 9
{11}
н/о н/о +11.3 +7.4 77 +8 +8 1019.9 1019.4
02 14.06 СВ 8
{10}
н/о н/о +11.2 +7.2 76 +8 +8 1019.8 1019.3
03 14.06 СВ 9
{11}
н/о н/о +11.4 +7.3 76 +8 +8 1019.8 1019.3
04 14.06 СВ 9
{11}
н/о н/о +11.5 +7.2 75 +8 +8 1019.6 1019.1
05 14.06 СВ 8
{10}
н/о н/о +11.3 +7.5 77 +8 +8 1019.5 1019.0
06 14.06 СВ 7
{11}
н/о н/о +11.0 +7.8 81 +8 +8 1019.5 1019.0 +10.8 +11.7
07 14.06 СВ 6
{8}
н/о н/о +11.4 +7.6 77 +8 +8 1019.8 1019.3
08 14.06 С 4
{7}
н/о н/о +11.8 +7.6 75 +10 +10 1019.8 1019.3
09 14.06 С 5
{7}
н/о н/о +12.8 +7.2 69 +11 +11 1019.9 1019.4
10 14.06 С 7
{8}
н/о н/о +12.4 +6.9 69 +10 +10 1019.8 1019.4
11 14.06
{9}
н/о н/о +13.1 +7.2 67 1019.6 1019.1
12 14.06
{9}
н/о н/о +12.9 +7.4 69 1019.5 1019.0
13 14.06 С 4
{6}
н/о н/о +13.1 +8.1 72 +11 +11 1019.1 1018.6
14 14.06 С 5
{7}
н/о н/о +12.7 +7.9 73 +11 +11 1018.8 1018.3
15 14.06 С 4
{6}
н/о н/о +13.9 +8.3 69 +13 +13 1018.5 1018.0
16 14.06 С 3
{6}
н/о н/о +13.5 +7.4 67 +12 +12 1018.2 1017.8
17 14.06 С 3
{5}
н/о н/о +14.5 +7.3 62 +14 +14 1017.9 1017.4
18 14.06 С 4
{7}
н/о н/о +13.2 +6.9 66 +12 +12 1017.7 1017.2 +11.0 +15.3
19 14.06 С 3
{4}
н/о н/о +12.1 +7.5 73 +11 +11 1017.9 1017.4
20 14.06 С 4
{5}
н/о н/о +12.2 +7.1 71 +10 +10 1017.6 1017.1
21 14.06 С 2
{5}
н/о н/о +11.8 +5.9 67 +11 +11 1017.8 1017.3
22 14.06 штиль 0
{3}
н/о н/о +10.9 +6.3 73 +10 +10 1017.8 1017.4
23 14.06 штиль 0
{3}
н/о н/о +10.7 +5.4 70 +10 +10 1017.9 1017.4
00 15.06 З 1
{5}
н/о н/о +10.1 +4.8 70 +10 +10 1017.8 1017.3
01 15.06 З 1
{2}
н/о н/о +9.3 +4.5 72 +9 +9 1017.9 1017.4
02 15.06 СЗ 1
{2}
н/о н/о +9.5 +4.6 71 +9 +9 1017.8 1017.4
03 15.06 В 1
{2}
н/о н/о +10.8 +6.3 74 +11 +11 1017.8 1017.3
04 15.06 СВ 5
{6}
н/о н/о +9.8 +6.2 78 +7 +7 1018.1 1017.6
05 15.06 С 2
{7}
н/о н/о +10.2 +6.7 79 +9 +9 1018.1 1017.6
06 15.06 СВ 1
{7}
н/о н/о +12.0 +7.2 72 +12 +12 1018.4 1017.9 +9.1 +13.9
07 15.06 ЮВ 2
{3}
н/о н/о +11.5 +7.0 74 +10 +10 1018.5 1018.0
08 15.06 ЮВ 2
{4}
н/о н/о +11.9 +6.2 68 +11 +11 1018.9 1018.4
09 15.06 ЮВ 2
{4}
н/о н/о +12.1 +6.7 70 +11 +11 1019.0 1018.5
10 15.06 С 2
{3}
н/о н/о +11.6 +6.8 72 +11 +11 1019.1 1018.6
11 15.06 СВ 2
{2}
н/о н/о +12.3 +6.9 70 +11 +11 1019.3 1018.8
12 15.06 В 2
{4}
н/о н/о +12.3 +7.0 70 +11 +11 1019.3 1018.8
13 15.06 С 3
{3}
н/о н/о +11.7 +6.7 71 +10 +10 1019.4 1018.9
14 15.06 С 4
{8}
н/о н/о +10.8 +6.2 73 +8 +8 1019.4 1018.9
15 15.06 С 7
{9}
н/о н/о +9.2 +5.1 76 +5 +5 1019.2 1018.7
16 15.06 С 6
{10}
н/о н/о +8.9 +5.2 78 +5 +5 1019.0 1018.5
17 15.06 С 5
{10}
н/о н/о +8.7 +5.3 79 +5 +5 1018.8 1018.4
18 15.06 С 7
{10}
н/о н/о +8.7 +5.9 83 +4 +4 1018.6 1018.1 +8.4 +12.6
19 15.06 С 4
{9}
н/о н/о +8.8 +5.8 81 +6 +6 1018.5 1018.1
20 15.06 СЗ 3
{6}
н/о н/о +8.4 +5.2 80 +6 +6 1018.5 1018.0
21 15.06 С 4
{7}
н/о н/о +7.5 +5.2 85 +4 +4 1018.3 1017.8
22 15.06 СЗ 3
{6}
н/о н/о +6.7 +4.4 85 +4 +4 1018.3 1017.8
23 15.06 СЗ 4
{6}
н/о н/о +6.9 +4.6 85 +3 +3 1018.1 1017.6
00 16.06 СЗ 4
{9}
н/о н/о +6.9 +4.3 83 +3 +3 1018.0 1017.5
01 16.06 С 5
{8}
н/о н/о +6.8 +4.7 86 +3 +3 1017.6 1017.1
02 16.06 С 4
{8}
н/о н/о +6.2 +4.3 88 +2 +2 1017.3 1016.8
03 16.06 С 7
{9}
н/о н/о +6.9 +5.0 88 +2 +2 1016.7 1016.2
04 16.06 СЗ 3
{8}
н/о н/о +7.0 +5.1 88 +4 +4 1016.6 1016.1
05 16.06
{5}
н/о н/о +7.3 +5.1 86 1016.6 1016.1
06 16.06 С 2
{9}
н/о н/о +7.8 +5.2 84 +6 +6 1016.2 1015.7 +6.1 +9.0
07 16.06 СВ 1
{4}
н/о н/о +8.5 +5.1 79 +8 +8 1015.8 1015.3
08 16.06 В 2
{4}
н/о н/о +8.1 +5.3 82 +6 +6 1015.8 1015.3
09 16.06 С 1
{3}
н/о н/о +9.2 +5.5 78 +9 +9 1015.4 1014.9
10 16.06
{6}
н/о н/о +8.6 +5.9 83 1015.1 1014.6
11 16.06 С 4
{7}
н/о н/о +9.3 +6.2 81 +6 +6 1014.8 1014.3
12 16.06 С 5
{7}
н/о н/о +9.7 +6.3 79 +7 +7 1014.4 1013.9
13 16.06
{6}
н/о н/о +9.7 +6.5 80 1013.9 1013.4
14 16.06 С 5
{6}
н/о н/о +10.3 +6.7 78 +7 +7 1013.3 1012.8
15 16.06
{7}
н/о н/о +10.0 +7.1 82 1013.0 1012.5
16 16.06
{6}
н/о н/о +10.7 +7.4 80 1012.4 1011.9
17 16.06
{6}
н/о н/о +10.9 +7.2 78 1011.7 1011.2
18 16.06 С 4
{7}
н/о н/о +11.6 +7.1 74 +9 +9 1011.3 1010.8 +7.5 +11.6
19 16.06 С 3
{5}
н/о н/о +12.1 +6.8 70 +11 +11 1011.0 1010.5
20 16.06 Ю 2
{3}
н/о н/о +12.4 +6.9 69 +12 +12 1010.7 1010.2
21 16.06 СЗ 2
{3}
н/о н/о +11.9 +6.2 68 +11 +11 1010.5 1010.0
22 16.06 З 1
{2}
н/о н/о +10.6 +6.2 74 +10 +10 1010.2 1009.7
23 16.06 штиль 0
{2}
н/о н/о +11.0 +8.1 82 +10 +10 1010.1 1009.6
00 17.06 ЮВ 1
{5}
н/о н/о +10.6 +8.7 88 +10 +10 1010.0 1009.5
01 17.06 ЮЗ 3
{6}
н/о н/о +9.9 +7.5 85 +8 +8 1010.1 1009.6
02 17.06 С 1
{3}
н/о н/о +10.3 0.0 49 +10 +10 1010.1 1009.6
03 17.06 ЮЗ 6
{8}
н/о н/о +8.2 +7.0 92 +4 +4 1010.1 1009.6
04 17.06 ЮЗ 6
{9}
н/о н/о +8.2 +7.3 94 +4 +4 1010.2 1009.7
05 17.06 ЮЗ 7
{9}
н/о н/о +8.4 +6.8 90 +4 +4 1010.6 1010.1
06 17.06 ЮЗ 6
{9}
н/о н/о +8.2 +6.4 88 +4 +4 1010.7 1010.2 +7.8 +13.4
07 17.06 ЮЗ 6
{8}
н/о н/о +8.4 +6.0 85 +4 +4 1010.9 1010.4
08 17.06 ЮЗ 6
{9}
н/о н/о +8.4 +5.5 82 +4 +4 1011.3 1010.8
09 17.06 ЮЗ 6
{9}
н/о н/о +8.7 +5.3 79 +5 +5 1011.4 1011.0
10 17.06 ЮЗ 6
{10}
н/о н/о +8.6 +5.2 79 +5 +5 1011.6 1011.1
11 17.06 ЮЗ 5
{9}
н/о н/о +8.8 +5.6 80 +5 +5 1011.8 1011.3
12 17.06 ЮЗ 6
{10}
н/о н/о +9.0 +5.6 79 +5 +5 1011.9 1011.4
13 17.06 ЮЗ 6
{8}
н/о н/о +8.9 +5.5 79 +5 +5 1011.9 1011.4
14 17.06 ЮЗ 6
{8}
н/о н/о +8.9 +5.3 78 +5 +5 1012.0 1011.5
15 17.06 ЮЗ 5
{8}
н/о н/о +9.2 +5.6 78 +6 +6 1012.0 1011.5
16 17.06 ЮЗ 4
{8}
н/о н/о +9.0 +5.4 78 +6 +6 1012.0 1011.5
17 17.06 ЮЗ 4
{6}
н/о н/о +8.9 +5.8 81 +6 +6 1011.8 1011.3
18 17.06 ЮЗ 4
{8}
н/о н/о +9.0 +6.0 81 +6 +6 1011.6 1011.1 +8.1 +9.4
19 17.06 ЮЗ 4
{5}
н/о н/о +8.7 +6.1 84 +6 +6 1011.5 1011.0
20 17.06 ЮЗ 4
{7}
н/о н/о +8.7 +6.3 85 +6 +6 1011.3 1010.8
21 17.06 ЮЗ 1
{5}
н/о н/о +9.0 +6.4 84 +8 +8 1011.3 1010.8
22 17.06 Ю 2
{2}
н/о н/о +8.8 +6.7 87 +7 +7 1011.2 1010.7
23 17.06 штиль 0
{2}
н/о н/о +8.7 +6.8 88 +8 +8 1011.0 1010.5
00 18.06 В 1
{7}
н/о н/о +8.6 +6.9 89 +8 +8 1010.7 1010.2
01 18.06 СВ 2
{2}
н/о н/о +8.4 +7.2 92 +6 +6 1010.5 1010.0
02 18.06 СВ 2
{3}
н/о н/о +8.6 +7.8 95 +7 +7 1010.1 1009.6
03 18.06 В 3
{4}
н/о н/о +9.2 +8.5 95 +7 +7 1009.6 1009.1
05 18.06 Ю 3
{4}
н/о н/о +10.2 +9.7 97 +8 +8 1009.2 1008.7
06 18.06 Ю 2
{5}
н/о н/о +10.2 +9.6 96 +9 +9 1009.1 1008.6 +8.4 +10.3
07 18.06 Ю 3
{4}
н/о н/о +10.4 +9.6 95 +8 +8 1009.1 1008.7
08 18.06 Ю 3
{7}
н/о н/о +11.1 +9.8 92 +9 +9 1009.2 1008.7
09 18.06 Ю 4
{5}
н/о н/о +11.2 +9.5 89 +9 +9 1009.2 1008.7
10 18.06 Ю 3
{4}
н/о н/о +10.7 +9.3 91 +9 +9 1009.1 1008.6

 

Местоположение метеостанции Аэропорт Vaeroy Heliport (Норвегия): широта 67.65 долгота 12.72 высота над уровнем моря 4 м.

В архиве по умолчанию представлена погода в Аэропорту Vaeroy Heliport за последнюю неделю. Архивные данные за месяц целиком и за предыдущие месяцы, начиная с января 2011 года, Вы можете получить, выбрав интересующий диапазон дат из раскрывающегося списка и нажав кнопку "Ввод!".


*Определитесь, кто Вы:
робот инопланетянин человек

Внимание! Время в таблицах - всемирное. Для получения местного времени необходимо прибавить поправку, которая равна 1 ч.

Смотрите также архив погоды в соседних городах и на ближайших метеорологических станциях:

Погода в Рост аэропорту (Норвегия) (30 км)
Погода в Хеллигвере (Норвегия) (57 км)
Погода в Лекнесе (Норвегия) (68 км)
Погода в Бодо (Норвегия) (82 км)
Погода в Рейпе (Норвегия) (92 км)
Погода на Маяке Skrova (Норвегия) (98 км)
Погода на Мыкене (Норвегия) (98 км)
Погода в Сволваер аэропорту (Норвегия) (105 км)
Погода в Бё (Норвегия) (128 км)
Погода в Сетсе (Норвегия) (130 км)

Пояснения к столбцам:

Ветер - указаны скорость ветра в м/с - средняя за 10 мин, порывы в срок и между сроками (в фигурных скобках) и направление, откуда дует ветер: С - северный, СВ - северо-восточный, В - восточный, ЮВ - юго-восточный, Ю - южный, ЮЗ - юго-западный, З - западный, СЗ - северо-западный.
Видимость - горизонтальная дальность видимости в метрах или километрах. При видимости от 1 до 10 км при отсутствии осадков обычно наблюдается дымка, при ухудшении видимости до 1 км и менее - туман. В сухую погоду видимость может ухудшаться дымом, пылью или мглою.
Явления - указаны атмосферные явления, наблюдавшиеся в срок или в последний час перед сроком; фигурными скобками обозначены явления, наблюдавшиеся между сроками (за 1-3 часа до срока); квадратными скобками обозначены град или гололедные отложения с указанием их диаметра в мм.
Облачность - указаны через наклонную черту общая и нижняя облачность в баллах и высота нижней границы облаков в метрах; квадратными скобками обозначены формы облаков: Ci - перистые, Cs - перисто-слоистые, Cc - перисто-кучевые, Ac - высококучевые, As - высокослоистые, Sc - слоисто-кучевые, Ns - слоисто-дождевые, Cu - кучевые, Cb - кучево-дождевые. Подробнее классификацию облаков см. в Атласе облаков (PDF).
T - Температура воздуха - температура, измеренная на высоте 2 м над землей.
Td - Температура точки росы - температура, при понижении до которой содержащийся в воздухе водяной пар достигнет насыщения.
f - Относительная влажность воздуха - влажноcть воздуха, измеренная на высоте 2 м над землей.
Te - Эффективная температура - температура, которую ощущает одетый по сезону человек в тени. Характеристика душности погоды. При расчете учитывается влияние влажности воздуха и скорости ветра на теплоощущения человека.
Tes - Эффективная температура на солнце - температура, которую ощущает человек, с поправкой на солнечный нагрев. Характеристика знойности погоды. Зависит от высоты солнца над горизонтом, облачности и скорости ветра. Ночью, в пасмурную погоду, а также при ветре 12 м/с и более поправка равна нулю.
P - Атмосферное давление - приведенное к уровню моря атмосферное давление.
Po - Атмосферное давление - измеренное на уровне метеостанции атмосферное давление.
Tmin - Минимальная температура - минимум температуры воздуха на высоте 2 м над землей.
Tmax - Максимальная температура - максимум температуры воздуха на высоте 2 м над землей.
R - Количество осадков - Количество выпавших осадков за период времени, мм. При наведении курсора мыши на число - период времени, за который выпало указанное количество осадков.
R24 - Количество осадков - Количество выпавших осадков за 24 часа, мм.
S - Снежный покров - Высота снежного покрова, см. При наведении курсора мыши на число - состояние снежного покрова и степень покрытия местности в баллах.